Regional Weather Roundup
Issued by NWS Green Bay, WI

Home | Current Version | Previous Version | Text Only | Print | Product List | Glossary On
Versions: 1 2 3 4 5 6 7 8 9 10 11 12 13 14 15 16 17 18 19 20 21 22 23 24 25 26 27 28 29 30 31 32 33 34 35 36 37 38 39 40 41 42 43 44 45 46 47 48 49 50
000
ASUS43 KGRB 230210
RWRGRB

NORTH-CENTRAL AND NORTHEAST WISCONSIN REGIONAL WEATHER ROUNDUP
NATIONAL WEATHER SERVICE GREEN BAY WI
800 PM CST SUN JAN 22 2017

WIZ005-009-010>012-018-019-230300-
NORTH CENTRAL WISCONSIN

CITY           SKY/WX    TMP DP  RH WIND       PRES   REMARKS
IRONWOOD       FOG       34  34 100 W5        29.71F VSB 1/2
MANITOWISH WTR CLOUDY    32  32 100 NW6       29.69S FOG
ARBOR VITAE    CLOUDY    37  36  96 NW5       29.69S
EAGLE RIVER    CLOUDY    34  34 100 NW5       29.67S
LAND O LAKES   CLOUDY    34  34 100 CALM      29.69S FOG
RHINELANDER    CLOUDY    36  35  96 NW5       29.68S
PHILLIPS       CLOUDY    33  33 100 CALM      29.69S
ANTIGO         CLOUDY    35  35 100 N6        29.68R
TOMAHAWK       CLOUDY    34  33  97 CALM      29.70R
MERRILL        CLOUDY    35  35 100 NW3         N/A  FOG
$$

WIZ013-073-230300-
NORTHEAST WISCONSIN

CITY           SKY/WX    TMP DP  RH WIND       PRES   REMARKS
IRON MOUNTAIN  CLOUDY    37  35  92 CALM      29.66S
MARINETTE      NOT AVBL
OCONTO         CLOUDY    33  33 100 CALM      29.68S VSB 1/4
$$

WIZ017-030-035>037-045-230300-
CENTRAL WISCONSIN

CITY           SKY/WX    TMP DP  RH WIND       PRES   REMARKS
MEDFORD        FOG       33  33  99 NW5       29.69S VSB 3/4
WAUSAU         CLOUDY    36  35  96 NW6       29.68R
MOSINEE        NOT AVBL
MARSHFIELD     FOG       34  33  96 NW7       29.69R VSB 3/4
WISC RAPIDS    CLOUDY    35  35 100 NW5       29.71S
STEVENS POINT  CLOUDY    34  34 100 CALM      29.70S FOG
WAUPACA        CLOUDY    38  37  97 CALM      29.69S
SHAWANO        CLOUDY    39  38  96 CALM      29.69S
CLINTONVILLE   CLOUDY    36  36 100 NW3       29.69R
WAUTOMA        CLOUDY    36  35  96 NW6       29.71R
$$

WIZ038-039-048-051-230300-
FOX VALLEY

CITY           SKY/WX    TMP DP  RH WIND       PRES   REMARKS
NWS GREEN BAY  FOG       37  37 100 CALM      29.69R VSB 1/2
APPLETON       CLOUDY    36  36 100 W7        29.67S FOG
OSHKOSH        CLOUDY    37  35  92 NW6       29.68S
FOND DU LAC    CLOUDY    37  34  89 NW6       29.68S
$$

WIZ022-050-052-230300-
EAST CENTRAL WISCONSIN

CITY           SKY/WX    TMP DP  RH WIND       PRES   REMARKS
EPHRAIM        FOG       34  34 100 CALM      29.67S VSB 1/2
WASHINGTON ISL FOG       33  33 100 NW3       29.68S VSB 1/4
STURGEON BAY   NOT AVBL
MANITOWOC      LGT RAIN  36  36 100 W5        29.69S VSB 1/2
SHEBOYGAN      CLOUDY    37  35  92 NW3       29.68S FOG
$$

LMZ563-521-522-541>543-230300-
LAKESHORE

STATION/POSITION TIME  TEMP    WIND        PRES    VSBY  WAVE
                       AIR SEA DIR/SP/G                  HT/PER
                 (UTC) (F)     (DEG/KT/KT) (MB)    (MI)  (FT/S)
SHEBOYGAN LKSHOR 0100   37     320/  4/  5 1005.5R
KEWAUNEE LKSHORE 0148   36     300/  3/  5 1004.7F
SISTER BAY LKSHO 0135   33        CALM       N/A
MENOMINEE LKSHOR 0148          320/  3/  3 1004.4F
$$




USA.gov is the U.S. government's official web portal to all federal, state and local government web resources and services.